Location: Étouvelles
(49.5207°N, 3.5808°E)
Time: 23:02:57
(UTC+00:00)

SKYMED 3 - Pass Details

Date: 03 February 2023
Orbit: 576 x 599 km, 97.9° (Epoch: 21 March)

Event Time Altitude Azimuth Distance (km) Brightness Sun altitude
Rises 17:59:48 0° 16° (NNE) 2,809 7.7 -12.5°
Reaches altitude 10° 18:01:59 10° 21° (NNE) 1,907 6.8 -12.8°
Maximum altitude 18:06:04 60° 101° (E) 673 4.4 -13.5°
Drops below altitude 10° 18:10:09 10° 182° (S) 1,904 7.2 -14.1°
Sets 18:12:20 0° 186° (S) 2,804 8.1 -14.5°
